Regional Weather Roundup
Issued by NWS

Home | Current Version | Previous Version | Graphics & Text | Print | Product List | Glossary On
Versions: 1 2 3 4 5 6 7 8 9 10 11 12 13 14 15 16 17 18 19 20 21 22 23 24 25 26 27 28 29 30 31 32 33 34 35 36 37 38 39 40 41 42 43 44 45 46 47 48 49 50
000
ASUS43 KDMX 020707
RWRIA

WEATHER ROUNDUP FOR IOWA
NATIONAL WEATHER SERVICE DES MOINES IA
200 AM CDT SUN AUG 02 2015

NOTE: "FAIR" INDICATES FEW OR NO CLOUDS BELOW 12,000 FEET WITH NO
SIGNIFICANT WEATHER AND/OR OBSTRUCTIONS TO VISIBILITY.

* - THESE STATIONS ARE NOT NWS STATIONS...THUS NOT UNDER NWS
QUALITY CONTROL.  THEY ALSO DO NOT REPORT WEATHER SUCH
AS PRECIPITATION OR FOG.

IAZ001>003-012>014-020>022-031>034-043>046-020800-
   NORTHWEST IOWA

CITY           SKY/WX    TMP DP  RH WIND       PRES   REMARKS
CARROLL *      CLEAR     72  70  94 SW15      29.88F
CHEROKEE *     CLEAR     68  68 100 S6        29.86F
DENISON *      CLEAR     72  70  94 S10       29.87F
LE MARS *      CLEAR     66  64  94 S7        29.86F
ORANGE CITY *  CLEAR     66  63  88 SW9       29.85F
SHELDON *      CLEAR     70  64  83 SW10G16   29.83F
SIOUX CITY     MOCLDY    68  64  87 SE6       29.86F
SPENCER        MOCLDY    71  66  84 SW8       29.84F
STORM LAKE *   CLEAR     70  68  94 SW9       29.88F
$$

IAZ055>058-069>071-079>083-090>094-020800-
   SOUTHWEST IOWA

CITY           SKY/WX    TMP DP  RH WIND       PRES   REMARKS
ATLANTIC *     MOCLDY    70  64  83 S8        29.92S
AUDUBON *      CLEAR     72  64  78 S10G16    29.92F
CLARINDA *     CLEAR     68  64  88 CALM      29.94F
COUNCIL BLFS *   N/A     72  70  94 S10       29.90F
CRESTON *      PTCLDY    68  63  83 SW9       29.94F
HARLAN  *      CLEAR     70  70 100 S9        29.93F
RED OAK *      CLEAR     68  64  88 S6        29.92F
SHENANDOAH *   CLEAR     70  64  83 CALM      29.92F
$$

IAZ047>049-059>061-072>074-084-020800-
   CENTRAL IOWA

CITY           SKY/WX    TMP DP  RH WIND       PRES   REMARKS
AMES           CLEAR     72  68  87 SW13      29.88F
ANKENY *       CLEAR     75  66  73 SW10G17   29.89F
CHARITON *     PTCLDY    70  66  88 SW6       29.92F
DES MOINES     PTCLDY    74  65  73 SW9       29.89F
GRINNELL*      CLEAR     72  68  88 SW6       29.90F
KNOXVILLE *    CLEAR     72  66  83 SW8       29.89F
MARSHALLTOWN   CLEAR     72  70  93 SW9       29.87F
PELLA *        CLEAR     73  70  88 SW7       29.90F
PERRY *          N/A     72  68  88 SW9G16    29.89F
$$

IAZ004>006-015-016-023>025-035-036-020800-
   NORTH CENTRAL IOWA

CITY           SKY/WX    TMP DP  RH WIND       PRES   REMARKS
ALGONA *       CLEAR     68  66  94 SW8       29.85F
CLARION *      CLEAR     66  66 100 S7        29.85F
ESTHERVILLE    MOCLDY    71  66  84 SW12      29.83F
FORT DODGE *   CLEAR     68  64  88 SW6       29.87F
MASON CITY     CLEAR     73  69  87 SW12      29.85F
FOREST CITY *  CLEAR     68  68 100 SW8       29.84F
IOWA FALLS *     N/A     70  68  94 SW6       29.89F
$$

IAZ007>011-017>019-026>030-037>042-050>054-066-020800-
   NORTHEAST IOWA

CITY           SKY/WX    TMP DP  RH WIND       PRES   REMARKS
CEDAR RAPIDS   CLEAR     70  70 100 SW5       29.88F
CHARLES CITY * PTCLDY    70  70 100 S9        29.85F
CLINTON *      CLEAR     66  66 100 SW8       29.92F
DECORAH *      CLEAR     72  70  94 S8        29.83F
DUBUQUE        PTCLDY    71  68  90 SW10      29.88F
MONTICELLO *   CLEAR     68  68 100 S5        29.88S
OELWEIN *        N/A    N/A N/A N/A SW8       29.87F
WATERLOO       CLEAR     74  70  87 SW12      29.85F
$$

IAZ064-065-067-068-078-020800-
   EAST CENTRAL IOWA

CITY           SKY/WX    TMP DP  RH WIND       PRES   REMARKS
DAVENPORT      CLEAR     73  70  90 SW8       29.90F
IOWA CITY      CLEAR     72  69  90 CALM      29.90S
MT. PLEASANT * CLEAR     70  66  88 S5        29.91F
MUSCATINE *    CLEAR     73  70  88 SE3       29.90S
QUAD CITIES    CLEAR     74  70  87 SW8       29.89F
$$

IAZ062-063-075>077-085>089-095>099-020800-
   SOUTHEAST IOWA

CITY           SKY/WX    TMP DP  RH WIND       PRES   REMARKS
BURLINGTON     CLEAR     70  69  97 S7        29.92F
FAIRFIELD *    CLEAR     68  66  94 S3        29.90F
FORT MADISON * CLEAR     70  66  88 S6        29.93S
KEOKUK *       CLEAR     70  66  88 S3        29.92S
OSKALOOSA *      N/A     68  66  94 CALM      29.90F
CENTERVILLE *  CLEAR     66  66 100 S6        29.94S
OTTUMWA        CLEAR     69  67  93 W7        29.89F
WASHINGTON *   CLEAR     70  68  94 SW5       29.91F
$$

ABBREVIATIONS USED IN REMARKS
   TC - TEMPERATURES IN CELSIUS
  WCI - WIND CHILL INDEX
   HX - HEAT INDEX
  VSB - VISIBILITY
$$




USA.gov is the U.S. government's official web portal to all federal, state and local government web resources and services.